Location: *
(57.8420°S, 159.8600°W)
Time: 05:29:17
(UTC+00:00)

H-2A R/B - Pass Details

Date: 18 May 2021
Orbit: 501 x 538 km, 97.3° (Epoch: 12 March)

Event Time Altitude Azimuth Distance (km) Brightness Sun altitude
Exits shadow 04:14:54 - 164° (SSE) 2,241 5.6 -13.8°
Reaches altitude 10° 04:15:54 10° 163° (SSE) 1,823 5.2 -13.9°
Maximum altitude 04:19:50 77° 77° (ENE) 558 2.7 -14.4°
Drops below altitude 10° 04:23:41 10° 349° (N) 1,778 5.7 -14.9°
Sets 04:25:46 0° 347° (NNW) 2,652 6.7 -15.2°
